Regional Weather Roundup
Issued by NWS

Home | Current Version | Previous Version | Graphics & Text | Print | Product List | Glossary Off
Versions: 1 2 3 4 5 6 7 8 9 10 11 12 13 14 15 16 17 18 19 20 21 22 23 24 25 26 27 28 29 30 31 32 33 34 35 36 37 38 39 40 41 42 43 44 45 46 47 48 49 50

000
ASUS43 KLSX 291307
RWRMO

WEATHER SUMMARY FOR MISSOURI
NATIONAL WEATHER SERVICE SPRINGFIELD MO
800 AM CDT FRI JUL 29 2016

NOTE: "FAIR" INDICATES FEW OR NO CLOUDS BELOW 12,000 FEET WITH NO
       SIGNIFICANT WEATHER AND/OR OBSTRUCTIONS TO VISIBILITY.
       CURRENT SKY AND/OR WEATHER CONDITIONS ARE NOT AVAILABLE FOR
       CHILLICOTHE AND FARMINGTON.

MOZ001>031-035>038-043-044-053-054-291400-
...NORTHERN AND WESTERN MISSOURI...

CITY           SKY/WX    TMP DP  RH WIND       PRES   REMARKS
KANSAS CTY INT CLOUDY    70  63  78 NE8       30.02R
KANSAS C DTWN  PTSUNNY   73  64  73 N8        30.00R
LEE`S SUMMIT   CLOUDY    72  66  81 NE7       30.01S
ST JOSEPH      PTSUNNY   71  65  81 VRB3      30.03R
CHILLICOTHE      N/A     70  65  84 VRB3      30.03R
KIRKSVILLE     CLOUDY    67  64  90 NW5       30.01R

$$
MOZ066>068-077>081-088>096-101>105-291400-
...SOUTHWEST MISSOURI...

CITY           SKY/WX    TMP DP  RH WIND       PRES   REMARKS
SPRINGFIELD    MOSUNNY   75  70  84 S3        29.99S
JOPLIN         MOSUNNY   72  67  84 N7        30.00R
BRANSON        MOSUNNY   75  73  94 CALM      30.01R

$$
MOZ032>034-039>042-045>050-055>058-069>072-291400-
...CENTRAL MISSOURI...

CITY           SKY/WX    TMP DP  RH WIND       PRES   REMARKS
COLUMBIA       PTSUNNY   71  68  90 CALM      30.00R
JEFFERSON CITY CLOUDY    73  70  90 CALM      29.98R
ROLLA          CLOUDY    73  68  84 CALM      29.99R
SEDALIA        CLOUDY    73  68  84 NE5       30.01R
WHITEMAN AFB   PTSUNNY   71  70  95 NE5       29.98S
OSAGE BEACH    CLOUDY    71  69  93 CALM      30.00R

$$
MOZ051-052-059>065-291400-
...EAST CENTRAL MISSOURI...

CITY           SKY/WX    TMP DP  RH WIND       PRES   REMARKS
ST LOUIS INTL  PTSUNNY   77  67  71 NW5       29.96R
SPIRIT OF STL  MOSUNNY   76  68  76 N5        29.95R
ST CHARLES     SUNNY     76  68  76 CALM      29.95R

$$
MOZ072>076-082>087-097>100-106>115-291400-
...SOUTH CENTRAL AND SOUTHEAST MISSOURI...

CITY           SKY/WX    TMP DP  RH WIND       PRES   REMARKS
CAPE GIRARDEAU CLOUDY    72  71  97 SW3       29.92S
FARMINGTON     MOSUNNY   74  71  91 NW3       29.99R
POPLAR BLUFF   SUNNY     74  70  87 W5        29.95R
WEST PLAINS    SUNNY     75  69  81 CALM      30.02R

$$



USA.gov is the U.S. government's official web portal to all federal, state and local government web resources and services.